Time,TemperatureF,DewpointF,PressureIn,WindDirection,WindDirectionDegrees,WindSpeedMPH,WindSpeedGustMPH,Humidity,HourlyPrecipIn,Conditions,Clouds,dailyrainin,SoftwareType,DateUTC
2013-04-02 07:02:00,23.0,19.0,30.00,WSW,250,0.0,12.0,86,0.00,,,0.00,,2013-04-02 12:02:00,
2013-04-02 07:12:00,23.0,19.0,30.00,WSW,250,0.0,12.0,86,0.00,,,0.00,,2013-04-02 12:12:00,
2013-04-02 07:22:00,22.0,18.0,30.00,WSW,250,0.0,12.0,86,0.00,,,0.00,,2013-04-02 12:22:00,
2013-04-02 07:32:00,23.0,19.0,30.00,WSW,250,0.0,12.0,86,0.00,,,0.00,,2013-04-02 12:32:00,
2013-04-02 07:42:00,23.0,19.0,30.00,WSW,250,0.0,12.0,86,0.00,,,0.00,,2013-04-02 12:42:00,
2013-04-02 07:52:00,24.0,20.0,30.00,WSW,250,0.0,12.0,86,0.00,,,0.00,,2013-04-02 12:52:00,
2013-04-02 08:02:00,25.0,21.0,30.00,WSW,258,1.0,12.0,86,0.00,,,0.00,,2013-04-02 13:02:00,
2013-04-02 08:12:00,27.0,23.0,30.00,WNW,285,3.0,12.0,86,0.00,,,0.00,,2013-04-02 13:12:00,
2013-04-02 08:22:00,27.0,23.0,30.00,WNW,285,3.0,12.0,86,0.00,,,0.00,,2013-04-02 13:22:00,
2013-04-02 08:32:00,28.0,24.0,30.00,North,354,3.0,12.0,86,0.00,,,0.00,,2013-04-02 13:32:00,
2013-04-02 08:42:00,28.0,24.0,30.00,North,354,3.0,12.0,86,0.00,,,0.00,,2013-04-02 13:42:00,
2013-04-02 08:52:00,29.0,25.0,30.00,WNW,283,2.0,12.0,86,0.00,,,0.00,,2013-04-02 13:52:00,
2013-04-02 09:02:00,29.0,25.0,30.00,NW,321,6.0,12.0,86,0.00,,,0.00,,2013-04-02 14:02:00,
2013-04-02 09:12:00,29.0,25.0,30.00,NW,321,6.0,12.0,86,0.00,,,0.00,,2013-04-02 14:12:00,
2013-04-02 09:23:00,30.0,26.0,30.00,NW,307,5.0,12.0,86,0.00,,,0.00,,2013-04-02 14:23:00,
2013-04-02 09:32:00,31.0,27.0,30.00,West,274,1.0,12.0,86,0.00,,,0.00,,2013-04-02 14:32:00,
2013-04-02 09:42:00,31.0,27.0,30.00,West,274,1.0,12.0,86,0.00,,,0.00,,2013-04-02 14:42:00,
2013-04-02 09:52:00,32.0,28.0,30.00,NW,309,3.0,12.0,86,0.00,,,0.00,,2013-04-02 14:52:00,
2013-04-02 10:02:00,33.0,29.0,30.00,WSW,254,2.0,12.0,86,0.00,,,0.00,,2013-04-02 15:02:00,
2013-04-02 10:11:00,33.0,29.0,30.00,WSW,254,2.0,12.0,86,0.00,,,0.00,,2013-04-02 15:11:00,
2013-04-02 10:22:00,33.0,29.0,30.00,West,273,3.0,12.0,86,0.00,,,0.00,,2013-04-02 15:22:00,
2013-04-02 10:33:00,34.0,30.0,30.00,NW,315,2.0,12.0,86,0.00,,,0.00,,2013-04-02 15:33:00,
2013-04-02 10:42:00,34.0,30.0,30.00,NW,315,2.0,12.0,86,0.00,,,0.00,,2013-04-02 15:42:00,
2013-04-02 10:57:00,35.0,31.0,30.00,WSW,246,5.0,12.0,86,0.00,,,0.00,,2013-04-02 15:57:00,
2013-04-02 11:03:00,36.0,32.0,30.00,NW,323,6.0,12.0,86,0.00,,,0.00,,2013-04-02 16:03:00,
2013-04-02 11:13:00,36.0,32.0,30.00,NW,323,6.0,12.0,86,0.00,,,0.00,,2013-04-02 16:13:00,
2013-04-02 11:24:00,37.0,33.0,30.00,West,279,6.0,12.0,86,0.00,,,0.00,,2013-04-02 16:24:00,
2013-04-02 11:43:00,37.0,33.0,30.00,WSW,249,5.0,12.0,86,0.00,,,0.00,,2013-04-02 16:43:00,
2013-04-02 11:53:00,38.0,34.0,30.00,WNW,284,6.0,12.0,86,0.00,,,0.00,,2013-04-02 16:53:00,
2013-04-02 12:04:00,39.0,35.0,30.00,WNW,292,5.0,12.0,86,0.00,,,0.00,,2013-04-02 17:04:00,
2013-04-02 12:13:00,39.0,35.0,30.00,WNW,292,5.0,12.0,86,0.00,,,0.00,,2013-04-02 17:13:00,
2013-04-02 12:24:00,39.0,35.0,30.00,NW,322,6.0,12.0,86,0.00,,,0.00,,2013-04-02 17:24:00,
2013-04-02 12:34:00,40.0,36.0,30.00,West,278,7.0,14.0,86,0.00,,,0.00,,2013-04-02 17:34:00,
2013-04-02 12:43:00,40.0,36.0,30.00,West,278,7.0,14.0,86,0.00,,,0.00,,2013-04-02 17:43:00,
2013-04-02 12:53:00,40.0,36.0,30.00,NNW,331,6.0,14.0,86,0.00,,,0.00,,2013-04-02 17:53:00,
2013-04-02 13:03:00,40.0,36.0,30.00,WNW,295,7.0,16.0,86,0.00,,,0.00,,2013-04-02 18:03:00,
2013-04-02 13:12:00,40.0,36.0,30.00,WNW,295,7.0,16.0,86,0.00,,,0.00,,2013-04-02 18:12:00,
2013-04-02 13:23:00,41.0,37.0,30.00,NW,313,6.0,16.0,86,0.00,,,0.00,,2013-04-02 18:23:00,
2013-04-02 13:43:00,41.0,37.0,30.00,WNW,289,7.0,16.0,86,0.00,,,0.00,,2013-04-02 18:43:00,
2013-04-02 13:54:00,42.0,38.0,30.00,West,275,9.0,17.0,86,0.00,,,0.00,,2013-04-02 18:54:00,
2013-04-02 14:03:00,43.0,39.0,30.00,NW,324,6.0,17.0,86,0.00,,,0.00,,2013-04-02 19:03:00,
2013-04-02 14:13:00,43.0,39.0,30.00,NW,324,6.0,17.0,86,0.00,,,0.00,,2013-04-02 19:13:00,
2013-04-02 14:23:00,43.0,39.0,30.00,WNW,297,6.0,17.0,86,0.00,,,0.00,,2013-04-02 19:23:00,
2013-04-02 14:33:00,42.0,38.0,30.00,West,277,8.0,19.0,86,0.00,,,0.00,,2013-04-02 19:33:00,
2013-04-02 14:45:00,42.0,38.0,30.00,West,277,8.0,19.0,86,0.00,,,0.00,,2013-04-02 19:45:00,
2013-04-02 15:03:00,43.0,39.0,30.00,WNW,286,12.0,19.0,86,0.00,,,0.00,,2013-04-02 20:03:00,
2013-04-02 15:13:00,43.0,39.0,30.00,WNW,286,12.0,19.0,86,0.00,,,0.00,,2013-04-02 20:13:00,
2013-04-02 15:22:00,45.0,41.0,30.00,WNW,295,5.0,19.0,86,0.00,,,0.00,,2013-04-02 20:22:00,
2013-04-02 15:33:00,44.0,40.0,30.00,WNW,285,8.0,19.0,86,0.00,,,0.00,,2013-04-02 20:33:00,
2013-04-02 15:54:00,44.0,40.0,30.00,WNW,285,8.0,19.0,86,0.00,,,0.00,,2013-04-02 20:54:00,
2013-04-02 16:03:00,45.0,41.0,30.00,West,272,7.0,21.0,86,0.00,,,0.00,,2013-04-02 21:03:00,
2013-04-02 16:13:00,45.0,41.0,30.00,West,272,7.0,21.0,86,0.00,,,0.00,,2013-04-02 21:13:00,
2013-04-02 16:23:00,44.0,40.0,30.00,WNW,284,12.0,21.0,86,0.00,,,0.00,,2013-04-02 21:23:00,
2013-04-02 16:34:00,44.0,40.0,30.00,NW,323,9.0,21.0,86,0.00,,,0.00,,2013-04-02 21:34:00,
2013-04-02 16:43:00,44.0,40.0,30.00,NW,323,9.0,21.0,86,0.00,,,0.00,,2013-04-02 21:43:00,
2013-04-02 16:55:00,44.0,40.0,30.00,SW,236,8.0,21.0,86,0.00,,,0.00,,2013-04-02 21:55:00,
2013-04-02 17:04:00,43.0,39.0,30.00,WNW,289,7.0,22.0,86,0.00,,,0.00,,2013-04-02 22:04:00,
2013-04-02 17:14:00,43.0,39.0,30.00,WNW,289,7.0,22.0,86,0.00,,,0.00,,2013-04-02 22:14:00,
2013-04-02 17:24:00,43.0,39.0,30.00,NW,317,10.0,22.0,86,0.00,,,0.00,,2013-04-02 22:24:00,
2013-04-02 17:33:00,43.0,39.0,30.00,WNW,289,8.0,22.0,86,0.00,,,0.00,,2013-04-02 22:33:00,
2013-04-02 17:43:00,43.0,39.0,30.00,WNW,289,8.0,22.0,86,0.00,,,0.00,,2013-04-02 22:43:00,
2013-04-02 17:53:00,43.0,39.0,30.00,NNW,327,8.0,22.0,86,0.00,,,0.00,,2013-04-02 22:53:00,
2013-04-02 18:02:00,42.0,38.0,30.00,WNW,299,8.0,22.0,86,0.00,,,0.00,,2013-04-02 23:02:00,
2013-04-02 18:12:00,42.0,38.0,30.00,NNW,347,7.0,22.0,86,0.00,,,0.00,,2013-04-02 23:12:00,
2013-04-02 18:23:00,42.0,38.0,30.00,NNW,347,7.0,22.0,86,0.00,,,0.00,,2013-04-02 23:23:00,
2013-04-02 18:34:00,42.0,38.0,30.00,NW,312,5.0,22.0,86,0.00,,,0.00,,2013-04-02 23:34:00,
2013-04-02 18:42:00,42.0,38.0,30.00,NW,312,5.0,22.0,86,0.00,,,0.00,,2013-04-02 23:42:00,
2013-04-02 18:54:00,41.0,37.0,30.00,NNW,333,8.0,22.0,86,0.00,,,0.00,,2013-04-02 23:54:00,
2013-04-02 19:13:00,40.0,36.0,30.00,North,354,5.0,22.0,86,0.00,,,0.00,,2013-04-03 00:13:00,
2013-04-02 19:24:00,39.0,35.0,30.00,NNW,336,9.0,22.0,86,0.00,,,0.00,,2013-04-03 00:24:00,
2013-04-02 19:33:00,39.0,35.0,30.00,NW,308,5.0,22.0,86,0.00,,,0.00,,2013-04-03 00:33:00,
2013-04-02 19:45:00,39.0,35.0,30.00,NW,308,5.0,22.0,86,0.00,,,0.00,,2013-04-03 00:45:00,
2013-04-02 19:55:00,37.0,33.0,30.00,West,277,3.0,22.0,86,0.00,,,0.00,,2013-04-03 00:55:00,
2013-04-02 20:03:00,37.0,33.0,30.00,North,5,3.0,22.0,86,0.00,,,0.00,,2013-04-03 01:03:00,
2013-04-02 20:12:00,37.0,33.0,30.00,North,5,3.0,22.0,86,0.00,,,0.00,,2013-04-03 01:12:00,
2013-04-02 20:22:00,37.0,33.0,30.00,NNW,329,2.0,22.0,86,0.00,,,0.00,,2013-04-03 01:22:00,
2013-04-02 20:33:00,36.0,32.0,30.00,NNW,337,1.0,22.0,86,0.00,,,0.00,,2013-04-03 01:33:00,
2013-04-02 20:42:00,36.0,32.0,30.00,NNW,337,1.0,22.0,86,0.00,,,0.00,,2013-04-03 01:42:00,
2013-04-02 20:53:00,35.0,31.0,30.00,NNW,345,2.0,22.0,86,0.00,,,0.00,,2013-04-03 01:53:00,
2013-04-02 21:03:00,35.0,31.0,30.00,NNW,339,5.0,22.0,86,0.00,,,0.00,,2013-04-03 02:03:00,
2013-04-02 21:13:00,35.0,31.0,30.00,NNW,339,5.0,22.0,86,0.00,,,0.00,,2013-04-03 02:13:00,
2013-04-02 21:23:00,34.0,30.0,30.00,NW,322,5.0,22.0,86,0.00,,,0.00,,2013-04-03 02:23:00,
2013-04-02 21:33:00,34.0,30.0,30.00,NW,325,2.0,22.0,86,0.00,,,0.00,,2013-04-03 02:33:00,
2013-04-02 21:43:00,34.0,30.0,30.00,NW,325,2.0,22.0,86,0.00,,,0.00,,2013-04-03 02:43:00,
2013-04-02 21:53:00,34.0,30.0,30.00,NW,305,3.0,22.0,86,0.00,,,0.00,,2013-04-03 02:53:00,
2013-04-02 22:04:00,33.0,29.0,30.00,NW,321,1.0,22.0,86,0.00,,,0.00,,2013-04-03 03:04:00,
2013-04-02 22:13:00,33.0,29.0,30.00,NW,321,1.0,22.0,86,0.00,,,0.00,,2013-04-03 03:13:00,
2013-04-02 22:23:00,33.0,29.0,30.00,NNW,329,3.0,22.0,86,0.00,,,0.00,,2013-04-03 03:23:00,
2013-04-02 22:36:00,32.0,28.0,30.00,NW,306,2.0,22.0,86,0.00,,,0.00,,2013-04-03 03:36:00,
2013-04-02 22:43:00,32.0,28.0,30.00,NW,306,2.0,22.0,86,0.00,,,0.00,,2013-04-03 03:43:00,
2013-04-02 22:54:00,31.0,27.0,30.00,NW,324,2.0,22.0,86,0.00,,,0.00,,2013-04-03 03:54:00,
2013-04-02 23:03:00,31.0,27.0,30.00,NNW,331,1.0,22.0,86,0.00,,,0.00,,2013-04-03 04:03:00,
2013-04-02 23:12:00,31.0,27.0,30.00,NNW,331,1.0,22.0,86,0.00,,,0.00,,2013-04-03 04:12:00,
2013-04-02 23:23:00,31.0,27.0,30.00,NNW,331,1.0,22.0,86,0.00,,,0.00,,2013-04-03 04:23:00,
2013-04-02 23:33:00,31.0,27.0,30.00,NNW,331,1.0,22.0,86,0.00,,,0.00,,2013-04-03 04:33:00,
2013-04-02 23:42:00,31.0,27.0,30.00,NNW,331,1.0,22.0,86,0.00,,,0.00,,2013-04-03 04:42:00,